NJU947 EGPH-EGKK

Flight info

Callsign NJU947
Flight time 1h 5m
Altitude 27000
Route GOSAM P600 FENIK L612 NAVSO DCT ADZOP DCT EGTOC DCT KEPAD L151 DISIT
Aircraft C750/M-SBDE3FGHRWXY/S

Departure

Time 2026-04-26 08:09
Airport Edinburgh Airport (EGPH)

Arrival

Time 2026-04-26 09:15
Airport London Gatwick Airport (EGKK)
Time Latitude Longitude Altitude Speed Heading
2026-04-26 07:50 55.95216 -3.35587 105 ft 0 kts 28°
2026-04-26 08:06 55.95219 -3.35588 106 ft 1 kts
2026-04-26 08:06 55.95219 -3.35594 105 ft 0 kts 302°
2026-04-26 08:06 55.95216 -3.35619 106 ft 8 kts 259°
2026-04-26 08:06 55.95212 -3.35762 104 ft 13 kts 302°
2026-04-26 08:07 55.95289 -3.35805 99 ft 13 kts 24°
2026-04-26 08:07 55.95331 -3.35695 99 ft 10 kts 59°
2026-04-26 08:07 55.95360 -3.35609 101 ft 6 kts 58°
2026-04-26 08:07 55.95381 -3.35550 102 ft 7 kts 58°
2026-04-26 08:08 55.95419 -3.35443 101 ft 13 kts 53°
2026-04-26 08:08 55.95496 -3.35435 98 ft 13 kts 326°
2026-04-26 08:08 55.95568 -3.35531 98 ft 11 kts 310°
2026-04-26 08:08 55.95561 -3.35594 98 ft 0 kts 238°
2026-04-26 08:09 55.95551 -3.35626 98 ft 10 kts 239°
2026-04-26 08:09 55.95414 -3.36043 96 ft 90 kts 239°
2026-04-26 08:09 55.94962 -3.37400 218 ft 147 kts 240°
2026-04-26 08:09 55.94429 -3.39070 781 ft 159 kts 238°
2026-04-26 08:10 55.93801 -3.40725 1527 ft 162 kts 235°
2026-04-26 08:10 55.93191 -3.42458 2316 ft 167 kts 238°
2026-04-26 08:10 55.92587 -3.44227 3124 ft 171 kts 237°
2026-04-26 08:10 55.91923 -3.46158 3646 ft 195 kts 237°
2026-04-26 08:11 55.91172 -3.48337 4205 ft 211 kts 238°
2026-04-26 08:11 55.90482 -3.50603 5013 ft 213 kts 250°
2026-04-26 08:11 55.90209 -3.53225 5748 ft 215 kts 261°
2026-04-26 08:11 55.89963 -3.55926 6123 ft 224 kts 259°
2026-04-26 08:12 55.89687 -3.58633 5996 ft 220 kts 258°
2026-04-26 08:12 55.89414 -3.61305 6059 ft 224 kts 259°
2026-04-26 08:12 55.89143 -3.64013 6000 ft 220 kts 259°
2026-04-26 08:12 55.88875 -3.66694 5999 ft 220 kts 259°
2026-04-26 08:13 55.88606 -3.69371 6001 ft 220 kts 259°
2026-04-26 08:13 55.88336 -3.72049 6000 ft 221 kts 259°
2026-04-26 08:13 55.88053 -3.74837 6465 ft 239 kts 259°
2026-04-26 08:13 55.87741 -3.77914 7052 ft 262 kts 259°
2026-04-26 08:14 55.87420 -3.81119 8181 ft 262 kts 259°
2026-04-26 08:14 55.87109 -3.84289 9328 ft 265 kts 259°
2026-04-26 08:14 55.86785 -3.87551 10309 ft 270 kts 258°
2026-04-26 08:14 55.86439 -3.90993 10671 ft 295 kts 258°
2026-04-26 08:15 55.86060 -3.94766 10845 ft 323 kts 258°
2026-04-26 08:15 55.85655 -3.98811 11370 ft 334 kts 258°
2026-04-26 08:15 55.85246 -4.02891 12216 ft 336 kts 258°
2026-04-26 08:15 55.84833 -4.06971 12940 ft 341 kts 258°
2026-04-26 08:16 55.84228 -4.11079 13588 ft 345 kts 246°
2026-04-26 08:16 55.82926 -4.14666 14320 ft 348 kts 230°
2026-04-26 08:16 55.81071 -4.17437 14985 ft 351 kts 216°
2026-04-26 08:16 55.79034 -4.19867 15685 ft 353 kts 215°
2026-04-26 08:17 55.77035 -4.22411 16351 ft 355 kts 217°
2026-04-26 08:17 55.74978 -4.24799 17025 ft 360 kts 210°
2026-04-26 08:17 55.72581 -4.26199 17734 ft 367 kts 193°
2026-04-26 08:17 55.70005 -4.26356 18455 ft 377 kts 177°
2026-04-26 08:18 55.67437 -4.25123 19103 ft 388 kts 160°
2026-04-26 08:18 55.65024 -4.22863 19761 ft 394 kts 154°
2026-04-26 08:18 55.62620 -4.20449 20397 ft 399 kts 154°
2026-04-26 08:18 55.60184 -4.18034 21026 ft 403 kts 155°
2026-04-26 08:19 55.57733 -4.15661 21638 ft 408 kts 155°
2026-04-26 08:19 55.55223 -4.13225 22255 ft 413 kts 155°
2026-04-26 08:19 55.52697 -4.10749 22875 ft 417 kts 155°
2026-04-26 08:19 55.50140 -4.08247 23485 ft 422 kts 155°
2026-04-26 08:20 55.47551 -4.05734 24050 ft 426 kts 155°
2026-04-26 08:20 55.44937 -4.03201 24552 ft 430 kts 155°
2026-04-26 08:20 55.42342 -4.00684 25040 ft 434 kts 155°
2026-04-26 08:20 55.39671 -3.98093 25573 ft 437 kts 155°
2026-04-26 08:21 55.36986 -3.95497 26099 ft 441 kts 155°
2026-04-26 08:21 55.34306 -3.92913 26610 ft 444 kts 155°
2026-04-26 08:21 55.31614 -3.90314 27108 ft 439 kts 155°
2026-04-26 08:21 55.28905 -3.87710 27289 ft 451 kts 155°
2026-04-26 08:22 55.26087 -3.85017 27283 ft 467 kts 155°
2026-04-26 08:22 55.23185 -3.82279 27288 ft 479 kts 157°
2026-04-26 08:22 55.20100 -3.80148 27283 ft 486 kts 166°
2026-04-26 08:22 55.16830 -3.78375 27308 ft 496 kts 166°
2026-04-26 08:23 55.13507 -3.76549 27302 ft 503 kts 166°
2026-04-26 08:23 55.10166 -3.74693 27305 ft 505 kts 166°
2026-04-26 08:23 55.06796 -3.72845 27300 ft 506 kts 166°
2026-04-26 08:23 55.03430 -3.71023 27303 ft 507 kts 166°
2026-04-26 08:24 55.00090 -3.69210 27305 ft 507 kts 166°
2026-04-26 08:24 54.96716 -3.67365 27303 ft 507 kts 166°
2026-04-26 08:24 54.93345 -3.65530 27291 ft 508 kts 166°
2026-04-26 08:24 54.89965 -3.63701 27286 ft 508 kts 166°
2026-04-26 08:25 54.87717 -3.62489 27284 ft 508 kts 166°
2026-04-26 08:25 54.83235 -3.60067 27282 ft 508 kts 166°
2026-04-26 08:25 54.80958 -3.58837 27282 ft 508 kts 166°
2026-04-26 08:25 54.77580 -3.57016 27281 ft 508 kts 166°
2026-04-26 08:26 54.74201 -3.55202 27282 ft 508 kts 166°
2026-04-26 08:26 54.70862 -3.53410 27282 ft 508 kts 166°
2026-04-26 08:26 54.67481 -3.51597 27288 ft 508 kts 166°
2026-04-26 08:26 54.64093 -3.49786 27289 ft 508 kts 166°
2026-04-26 08:27 54.60709 -3.47980 27288 ft 508 kts 166°
2026-04-26 08:27 54.57333 -3.46180 27285 ft 508 kts 166°
2026-04-26 08:27 54.53957 -3.44384 27286 ft 508 kts 166°
2026-04-26 08:27 54.50613 -3.42609 27290 ft 508 kts 166°
2026-04-26 08:28 54.47235 -3.40817 27290 ft 508 kts 166°
2026-04-26 08:28 54.43853 -3.39027 27281 ft 508 kts 166°
2026-04-26 08:28 54.40469 -3.37240 27289 ft 508 kts 166°
2026-04-26 08:28 54.37075 -3.35449 27290 ft 508 kts 166°
2026-04-26 08:29 54.33737 -3.33692 27282 ft 508 kts 166°
2026-04-26 08:29 54.30361 -3.31917 27289 ft 508 kts 166°
2026-04-26 08:29 54.26968 -3.30137 27288 ft 508 kts 166°
2026-04-26 08:29 54.23595 -3.28369 27291 ft 508 kts 167°
2026-04-26 08:30 54.20207 -3.26610 27281 ft 507 kts 167°
2026-04-26 08:30 54.16772 -3.25378 27289 ft 503 kts 175°
2026-04-26 08:30 54.13294 -3.24802 27295 ft 502 kts 178°
2026-04-26 08:30 54.09821 -3.24273 27300 ft 502 kts 178°
2026-04-26 08:31 54.06386 -3.23709 27301 ft 502 kts 178°
2026-04-26 08:31 54.02909 -3.23137 27301 ft 502 kts 178°
2026-04-26 08:31 53.99452 -3.22058 27282 ft 506 kts 169°
2026-04-26 08:31 53.96090 -3.20181 27290 ft 509 kts 162°
2026-04-26 08:32 53.92774 -3.18015 27288 ft 510 kts 162°
2026-04-26 08:32 53.89455 -3.15889 27292 ft 510 kts 162°
2026-04-26 08:32 53.86179 -3.13802 27295 ft 510 kts 162°
2026-04-26 08:32 53.82849 -3.11656 27296 ft 512 kts 162°
2026-04-26 08:33 53.79526 -3.09509 27296 ft 512 kts 162°
2026-04-26 08:33 53.76196 -3.07377 27297 ft 512 kts 162°
2026-04-26 08:33 53.72864 -3.05256 27297 ft 512 kts 162°
2026-04-26 08:33 53.69525 -3.03126 27276 ft 512 kts 162°
2026-04-26 08:34 53.66196 -3.00999 27290 ft 512 kts 162°
2026-04-26 08:34 53.62862 -2.98877 27290 ft 512 kts 162°
2026-04-26 08:34 53.59522 -2.96759 27292 ft 512 kts 162°
2026-04-26 08:34 53.56187 -2.94646 27293 ft 512 kts 162°
2026-04-26 08:35 53.52849 -2.92532 27293 ft 512 kts 162°
2026-04-26 08:35 53.49511 -2.90422 27292 ft 512 kts 162°
2026-04-26 08:35 53.46177 -2.88320 27297 ft 512 kts 162°
2026-04-26 08:35 53.42837 -2.86217 27312 ft 512 kts 162°
2026-04-26 08:36 53.39502 -2.84121 27313 ft 512 kts 162°
2026-04-26 08:36 53.36166 -2.82027 27313 ft 512 kts 162°
2026-04-26 08:36 53.32866 -2.79960 27306 ft 512 kts 162°
2026-04-26 08:36 53.29535 -2.77876 27306 ft 512 kts 162°
2026-04-26 08:37 53.26197 -2.75791 27308 ft 512 kts 162°
2026-04-26 08:37 53.22856 -2.73709 27308 ft 512 kts 162°
2026-04-26 08:37 53.19521 -2.71634 27312 ft 512 kts 162°
2026-04-26 08:37 53.16174 -2.69554 27311 ft 512 kts 162°
2026-04-26 08:38 53.12842 -2.67486 27314 ft 512 kts 162°
2026-04-26 08:38 53.09498 -2.65416 27313 ft 512 kts 162°
2026-04-26 08:38 53.06161 -2.63353 27314 ft 512 kts 162°
2026-04-26 08:38 53.02819 -2.61291 27312 ft 512 kts 163°
2026-04-26 08:39 52.99484 -2.59236 27314 ft 512 kts 163°
2026-04-26 08:39 52.96140 -2.57178 27315 ft 511 kts 163°
2026-04-26 08:39 52.92805 -2.55130 27316 ft 512 kts 163°
2026-04-26 08:39 52.89463 -2.53081 27316 ft 512 kts 163°
2026-04-26 08:40 52.86116 -2.51033 27315 ft 513 kts 163°
2026-04-26 08:40 52.82774 -2.48953 27309 ft 514 kts 161°
2026-04-26 08:40 52.79570 -2.46273 27310 ft 518 kts 152°
2026-04-26 08:40 52.76553 -2.42994 27318 ft 520 kts 148°
2026-04-26 08:41 52.73549 -2.39656 27310 ft 520 kts 149°
2026-04-26 08:41 52.70536 -2.36357 27345 ft 519 kts 149°
2026-04-26 08:41 52.67530 -2.33070 27348 ft 519 kts 149°
2026-04-26 08:41 52.64522 -2.29755 27349 ft 519 kts 149°
2026-04-26 08:42 52.61521 -2.26449 27350 ft 519 kts 149°
2026-04-26 08:42 52.58514 -2.23163 27348 ft 519 kts 149°
2026-04-26 08:42 52.55500 -2.19879 27347 ft 519 kts 149°
2026-04-26 08:42 52.52529 -2.16637 27345 ft 519 kts 149°
2026-04-26 08:43 52.49521 -2.13354 27331 ft 519 kts 149°
2026-04-26 08:43 52.46517 -2.10087 27333 ft 517 kts 149°
2026-04-26 08:43 52.43515 -2.06833 27329 ft 517 kts 149°
2026-04-26 08:43 52.40519 -2.03587 27206 ft 506 kts 149°
2026-04-26 08:44 52.37682 -2.00499 26553 ft 474 kts 149°
2026-04-26 08:44 52.35015 -1.97610 25941 ft 448 kts 149°
2026-04-26 08:44 52.32436 -1.94846 25365 ft 441 kts 149°
2026-04-26 08:44 52.29876 -1.92104 24786 ft 439 kts 149°
2026-04-26 08:45 52.27336 -1.89365 24213 ft 436 kts 149°
2026-04-26 08:45 52.24821 -1.86655 23605 ft 431 kts 149°
2026-04-26 08:45 52.22330 -1.83985 23036 ft 426 kts 149°
2026-04-26 08:45 52.19864 -1.81347 22469 ft 422 kts 149°
2026-04-26 08:46 52.17423 -1.78734 21917 ft 417 kts 149°
2026-04-26 08:46 52.15007 -1.76152 21373 ft 413 kts 149°
2026-04-26 08:46 52.12615 -1.73601 20831 ft 409 kts 149°
2026-04-26 08:46 52.10247 -1.71078 20297 ft 405 kts 149°
2026-04-26 08:47 52.07899 -1.68579 19986 ft 403 kts 149°
2026-04-26 08:47 52.05563 -1.66096 19644 ft 400 kts 149°
2026-04-26 08:47 52.03272 -1.63665 19291 ft 397 kts 149°
2026-04-26 08:47 52.00969 -1.61222 18939 ft 395 kts 149°
2026-04-26 08:48 51.98677 -1.58794 18586 ft 392 kts 149°
2026-04-26 08:48 51.96400 -1.56387 18215 ft 389 kts 149°
2026-04-26 08:48 51.94135 -1.53995 17866 ft 387 kts 149°
2026-04-26 08:48 51.91879 -1.51616 17526 ft 385 kts 149°
2026-04-26 08:49 51.89641 -1.49256 17189 ft 383 kts 149°
2026-04-26 08:49 51.87412 -1.46911 16852 ft 381 kts 149°
2026-04-26 08:49 51.85196 -1.44582 16515 ft 380 kts 149°
2026-04-26 08:49 51.82987 -1.42262 16183 ft 378 kts 149°
2026-04-26 08:50 51.80785 -1.39952 15852 ft 376 kts 149°
2026-04-26 08:50 51.78593 -1.37657 15521 ft 374 kts 149°
2026-04-26 08:50 51.76390 -1.35354 15326 ft 387 kts 149°
2026-04-26 08:50 51.74068 -1.32934 15333 ft 407 kts 149°
2026-04-26 08:51 51.69181 -1.27829 15331 ft 424 kts 149°
2026-04-26 08:51 51.66701 -1.25247 15328 ft 426 kts 149°
2026-04-26 08:51 51.64208 -1.22657 15326 ft 427 kts 149°
2026-04-26 08:52 51.61711 -1.20066 15328 ft 428 kts 149°
2026-04-26 08:52 51.59212 -1.17473 15328 ft 428 kts 149°
2026-04-26 08:52 51.56711 -1.14884 15323 ft 428 kts 149°
2026-04-26 08:52 51.54236 -1.12325 15323 ft 428 kts 149°
2026-04-26 08:53 51.51735 -1.09743 15320 ft 428 kts 149°
2026-04-26 08:53 51.49235 -1.07165 15311 ft 422 kts 149°
2026-04-26 08:53 51.46875 -1.04727 15066 ft 384 kts 149°
2026-04-26 08:53 51.44691 -1.02477 14763 ft 369 kts 149°
2026-04-26 08:54 51.42529 -1.00265 14446 ft 368 kts 149°
2026-04-26 08:54 51.40380 -0.98064 14127 ft 366 kts 149°
2026-04-26 08:54 51.38242 -0.95868 13788 ft 364 kts 149°
2026-04-26 08:54 51.36110 -0.93684 13471 ft 364 kts 149°
2026-04-26 08:55 51.33985 -0.91511 13154 ft 362 kts 149°
2026-04-26 08:55 51.31861 -0.89342 12821 ft 360 kts 148°
2026-04-26 08:55 51.29757 -0.87195 12508 ft 358 kts 148°
2026-04-26 08:55 51.27659 -0.85055 12193 ft 356 kts 148°
2026-04-26 08:56 51.25573 -0.82930 11881 ft 355 kts 148°
2026-04-26 08:56 51.24196 -0.81530 11675 ft 354 kts 148°
2026-04-26 08:56 51.21423 -0.78712 11265 ft 352 kts 148°
2026-04-26 08:56 51.19428 -0.76684 10956 ft 321 kts 148°
2026-04-26 08:57 51.17662 -0.74891 10682 ft 293 kts 148°
2026-04-26 08:57 51.15952 -0.73162 10426 ft 293 kts 148°
2026-04-26 08:57 51.14236 -0.71427 10171 ft 291 kts 148°
2026-04-26 08:57 51.12535 -0.69706 9910 ft 288 kts 148°
2026-04-26 08:58 51.10845 -0.67998 9653 ft 287 kts 148°
2026-04-26 08:58 51.09164 -0.66300 9403 ft 286 kts 148°
2026-04-26 08:58 51.07498 -0.64620 9158 ft 284 kts 148°
2026-04-26 08:58 51.05856 -0.62871 8883 ft 284 kts 141°
2026-04-26 08:59 51.04701 -0.60351 8598 ft 282 kts 117°
2026-04-26 08:59 51.03846 -0.57550 8406 ft 282 kts 116°
2026-04-26 08:59 51.02985 -0.54763 8176 ft 281 kts 116°
2026-04-26 08:59 51.02107 -0.51984 7714 ft 278 kts 117°
2026-04-26 09:00 51.01250 -0.49266 7384 ft 273 kts 117°
2026-04-26 09:00 51.00405 -0.46572 7118 ft 272 kts 116°
2026-04-26 09:00 50.99561 -0.43883 6867 ft 272 kts 116°
2026-04-26 09:00 50.98716 -0.41200 6626 ft 270 kts 116°
2026-04-26 09:01 50.97877 -0.38537 6379 ft 269 kts 116°
2026-04-26 09:01 50.97041 -0.35887 6139 ft 267 kts 117°
2026-04-26 09:01 50.96210 -0.33257 5900 ft 267 kts 116°
2026-04-26 09:01 50.95382 -0.30638 5667 ft 263 kts 117°
2026-04-26 09:02 50.94582 -0.28109 5433 ft 254 kts 117°
2026-04-26 09:02 50.93815 -0.25688 5210 ft 237 kts 117°
2026-04-26 09:02 50.93136 -0.23365 4971 ft 229 kts 109°
2026-04-26 09:02 50.93138 -0.20880 4703 ft 227 kts 76°
2026-04-26 09:03 50.93942 -0.18752 4507 ft 230 kts 46°
2026-04-26 09:03 50.95354 -0.17575 4323 ft 235 kts 15°
2026-04-26 09:03 50.96981 -0.17773 4130 ft 241 kts 342°
2026-04-26 09:03 50.98298 -0.19364 3974 ft 238 kts 307°
2026-04-26 09:04 50.98920 -0.21711 3930 ft 232 kts 285°
2026-04-26 09:04 50.99301 -0.24201 3820 ft 230 kts 283°
2026-04-26 09:04 50.99656 -0.26562 3639 ft 210 kts 283°
2026-04-26 09:04 51.00003 -0.28775 3451 ft 204 kts 283°
2026-04-26 09:05 51.00340 -0.30929 3262 ft 202 kts 283°
2026-04-26 09:05 51.00676 -0.33084 3084 ft 199 kts 283°
2026-04-26 09:05 51.01009 -0.35213 2996 ft 197 kts 283°
2026-04-26 09:05 51.01355 -0.37312 2991 ft 197 kts 284°
2026-04-26 09:06 51.01704 -0.39423 2999 ft 197 kts 283°
2026-04-26 09:06 51.02048 -0.41539 3005 ft 199 kts 284°
2026-04-26 09:06 51.02397 -0.43673 3008 ft 201 kts 284°
2026-04-26 09:06 51.02747 -0.45815 2999 ft 200 kts 284°
2026-04-26 09:07 51.03093 -0.47948 3002 ft 199 kts 283°
2026-04-26 09:07 51.03447 -0.50080 3001 ft 200 kts 285°
2026-04-26 09:07 51.04120 -0.52009 2974 ft 199 kts 311°
2026-04-26 09:07 51.05158 -0.53366 2993 ft 196 kts 333°
2026-04-26 09:08 51.06434 -0.54050 2993 ft 194 kts 354°
2026-04-26 09:08 51.07765 -0.53968 2997 ft 190 kts 16°
2026-04-26 09:08 51.08966 -0.53171 2992 ft 186 kts 36°
2026-04-26 09:08 51.09893 -0.51814 2988 ft 179 kts 56°
2026-04-26 09:09 51.10473 -0.50074 2990 ft 177 kts 74°
2026-04-26 09:09 51.10751 -0.48160 3005 ft 178 kts 80°
2026-04-26 09:09 51.11010 -0.46290 2998 ft 165 kts 80°
2026-04-26 09:09 51.11249 -0.44597 2978 ft 149 kts 80°
2026-04-26 09:10 51.11470 -0.43022 2993 ft 146 kts 80°
2026-04-26 09:10 51.11692 -0.41419 2887 ft 151 kts 81°
2026-04-26 09:10 51.11917 -0.39800 2692 ft 146 kts 81°
2026-04-26 09:10 51.12135 -0.38247 2494 ft 139 kts 80°
2026-04-26 09:11 51.12331 -0.36847 2314 ft 123 kts 82°
2026-04-26 09:11 51.12514 -0.35543 2140 ft 119 kts 82°
2026-04-26 09:11 51.12688 -0.34302 1980 ft 111 kts 82°
2026-04-26 09:11 51.12857 -0.33102 1841 ft 110 kts 82°
2026-04-26 09:12 51.13025 -0.31896 1690 ft 113 kts 81°
2026-04-26 09:12 51.13198 -0.30678 1536 ft 111 kts 80°
2026-04-26 09:12 51.13362 -0.29512 1382 ft 106 kts 81°
2026-04-26 09:12 51.13511 -0.28359 1182 ft 105 kts 81°
2026-04-26 09:13 51.13656 -0.27217 1036 ft 104 kts 81°
2026-04-26 09:13 51.13794 -0.26083 923 ft 104 kts 78°
2026-04-26 09:13 51.13932 -0.24998 822 ft 97 kts 78°
2026-04-26 09:13 51.14101 -0.23959 676 ft 100 kts 76°
2026-04-26 09:14 51.14205 -0.23243 586 ft 101 kts 76°
2026-04-26 09:14 51.14370 -0.22163 424 ft 98 kts 76°
2026-04-26 09:14 51.14522 -0.21114 241 ft 95 kts 76°
2026-04-26 09:14 51.14651 -0.20202 210 ft 62 kts 77°
2026-04-26 09:15 51.14713 -0.19783 211 ft 31 kts 74°
2026-04-26 09:15 51.14761 -0.19432 206 ft 35 kts 78°
2026-04-26 09:15 51.14817 -0.19031 209 ft 39 kts 78°
2026-04-26 09:15 51.14899 -0.18604 208 ft 38 kts 51°
2026-04-26 09:16 51.15058 -0.18285 201 ft 29 kts 51°
2026-04-26 09:16 51.15082 -0.18243 201 ft 0 kts 50°
2026-04-26 09:17 51.15098 -0.18212 201 ft 11 kts 51°
2026-04-26 09:18 51.15202 -0.18085 202 ft 14 kts 340°
2026-04-26 09:18 51.15206 -0.18142 201 ft 6 kts 257°
2026-04-26 09:18 51.15194 -0.18234 201 ft 11 kts 258°
2026-04-26 09:18 51.15178 -0.18399 201 ft 20 kts 257°
2026-04-26 09:19 51.15147 -0.18622 201 ft 21 kts 258°
2026-04-26 09:19 51.15116 -0.18852 205 ft 21 kts 257°
2026-04-26 09:19 51.15084 -0.19074 204 ft 20 kts 257°
2026-04-26 09:19 51.15056 -0.19290 207 ft 20 kts 257°
2026-04-26 09:20 51.15027 -0.19497 207 ft 17 kts 260°
2026-04-26 09:20 51.15096 -0.19581 205 ft 13 kts 345°
2026-04-26 09:20 51.15183 -0.19609 205 ft 10 kts
2026-04-26 09:20 51.15194 -0.19574 201 ft 3 kts 80°
2026-04-26 09:21 51.15200 -0.19523 201 ft 7 kts 77°
2026-04-26 09:21 51.15209 -0.19465 201 ft 0 kts 78°